[[{"header":{"parameterUnit":"m.s-1","parameterCategory":1,"la1":30.2991,"la2":30.254,"lo1":-89.0895,"lo2":-89.0444,"dy":0.0017,"dx":0.0017,"nx":28,"ny":28,"refTime":"2024-04-27T03:00:00:Z","depth":0,"parameterNumber":2,"parameterNumberName":"U-component_of_WINDS"},"data":[0,0,0,0,0,0,0,0,0,0,0,0,0,0,0,0,0,0,0,0,0,0,0,0,0,0,0,0,0,0,0,0,0,0,0,0,0,0,0,0,0,0,0,0,0,0,0,0,0,0,0,0,0,0,0,0,0,0,-6.4776,-6.4777,0,-6.4896,-6.4897,-6.4899,-6.4875,-6.4873,-6.4871,-6.4869,-6.4988,-6.4993,-6.4998,0,0,0,0,0,0,0,0,0,0,0,0,0,-6.4523,-6.4528,-6.4776,-6.4777,-6.4779,-6.4896,-6.4897,-6.4899,-6.4876,-6.4873,-6.487,-6.4868,-6.4986,-6.4992,-6.4998,0,0,0,0,0,0,0,0,0,0,0,0,0,-6.4637,-6.4529,-6.4775,-6.4781,-6.4783,-6.4895,-6.4897,-6.4899,-6.4876,-6.4873,-6.487,-6.4867,-6.4984,-6.4992,-6.4999,-6.5112,0,0,-6.5023,-6.5026,0,0,0,0,0,0,0,0,-6.463,-6.4646,-6.4779,-6.4781,-6.4783,-6.4867,-6.4852,-6.497,-6.4877,-6.4841,-6.4869,-6.4865,-6.495,-6.496,-6.499,-6.5118,-6.5123,-6.5024,-6.5028,-6.5032,-6.5034,0,0,0,0,0,0,0,-6.4622,-6.4641,-6.4823,-6.4781,-6.4783,-6.4777,-6.4789,-6.4874,-6.4912,-6.4844,-6.4842,-6.4857,-6.4951,-6.4982,-6.4993,-6.5124,-6.5023,-6.503,-6.5035,-6.5038,-6.535,-6.5354,0,0,0,0,0,0,-6.4613,-6.4634,-6.4819,-6.4827,-6.4697,-6.4784,-6.4798,-6.4843,-6.4911,-6.4918,-6.486,-6.4855,-6.4971,-6.4983,-6.4997,-6.5132,-6.5032,-6.5039,-6.5043,-6.5347,-6.5351,-6.5355,0,0,0,0,0,0,-6.4608,-6.463,-6.4814,-6.473,-6.4753,-6.4792,-6.4843,-6.4848,-6.4879,-6.4923,-6.4929,-6.4885,-6.4969,-6.4986,-6.5084,-6.5136,-6.5042,-6.5049,-6.5342,-6.5348,-6.5353,-6.5405,0,0,0,0,0,0,-6.4601,-6.4628,-6.4672,-6.4731,-6.4758,-6.49,-6.4846,-6.4852,-6.4893,-6.4889,-6.4949,-6.4956,-6.4967,-6.5072,-6.5091,-6.5145,-6.5056,-6.5338,-6.5345,-6.5351,-6.5398,-6.5411,-6.5422,0,0,0,0,0,-6.4592,-6.4681,-6.4674,-6.4697,-6.4814,-6.4903,-6.4918,-6.4931,-6.4898,-6.4941,-6.497,-6.4954,-6.5128,-6.5083,-6.5104,-6.516,-6.5335,-6.5343,-6.5351,-6.5393,-6.5409,-6.5422,0,0,0,0,0,0,-6.4624,-6.4688,-6.4682,-6.4793,-6.4843,-6.4899,-6.4955,-6.4947,-6.5007,-6.5,-6.5013,-6.5026,-6.5126,-6.5153,-6.5102,-6.5273,-6.5226,-6.5239,-6.5251,-6.5266,-6.5278,-6.5268,-6.5062,0,0,0,0,0,-6.4645,-6.4714,-6.4766,-6.4859,-6.4885,-6.4916,-6.4955,-6.4961,-6.5013,-6.5033,-6.5069,-6.5119,-6.5184,-6.5227,-6.529,-6.5403,-6.5415,-6.5453,-6.5465,-6.5474,-6.5484,-6.5545,-6.5562,-6.5382,-6.5382,-6.5382,0,0,-6.4687,-6.4731,-6.4773,-6.4867,-6.4906,-6.4976,-6.4933,-6.5009,-6.506,-6.5044,-6.5139,-6.5167,-6.5224,-6.533,-6.5378,-6.5355,-6.5538,-6.5485,-6.5492,-6.5497,-6.5555,-6.5573,-6.5588,-6.5387,-6.5386,-6.5386,0,0,-6.4799,-6.484,-6.4922,-6.4963,-6.5024,-6.5044,-6.5064,-6.5122,-6.514,-6.5236,-6.5226,-6.5287,-6.5401,-6.5441,-6.5476,-6.5607,-6.5593,-6.5627,-6.5687,-6.5747,-6.5761,-6.5774,-6.5818,-6.5834,-6.5637,-6.5638,-6.5638,0,-6.4843,-6.4949,-6.4964,-6.5042,-6.5082,-6.5074,-6.5156,-6.5194,-6.5272,-6.53,-6.5275,-6.5418,-6.5455,-6.557,-6.5602,-6.5632,-6.5653,-6.5618,-6.5758,-6.5771,-6.5783,-6.5825,-6.5842,-6.5641,-6.5641,-6.564,-6.564,0,-6.5,-6.5074,-6.5132,-6.5209,-6.5257,-6.5336,-6.5362,-6.5409,-6.5412,-6.5435,-6.5532,-6.5577,-6.5649,-6.5678,-6.568,-6.5793,-6.5777,-6.5755,-6.5708,-6.5803,-6.5843,-6.586,-6.5646,-6.5645,-6.5644,-6.5643,0,0,-6.5133,-6.5219,-6.524,-6.5275,-6.5343,-6.5399,-6.5478,-6.555,-6.5589,-6.5644,-6.5709,-6.5807,-6.5787,-6.5828,-6.5835,-6.5888,-6.5986,-6.5859,-6.586,-6.5879,-6.6111,-6.6126,-6.6144,-6.5979,-6.5983,-6.5985,-6.6106,0,-6.525,-6.539,-6.5407,-6.5531,-6.5598,-6.5592,-6.5661,-6.5709,-6.5733,-6.5793,-6.582,-6.5888,-6.5858,-6.5882,-6.5934,-6.5963,-6.6032,-6.5955,-6.6038,-6.6041,-6.6021,-6.6166,-6.6181,-6.6293,-6.6122,-6.6125,-6.6127,0,-6.5404,-6.5465,-6.5596,-6.5655,-6.5684,-6.5745,-6.5812,-6.5871,-6.5925,-6.5939,-6.5986,-6.5987,-6.6067,-6.602,-6.613,-6.6077,-6.6112,-6.6132,-6.6137,-6.6142,-6.6087,-6.6173,-6.6329,-6.6345,-6.6152,-6.615,-6.6148,0,-6.5486,-6.56,-6.5694,-6.5724,-6.5795,-6.5838,-6.587,-6.5922,-6.5964,-6.6023,-6.605,-6.6118,-6.6154,-6.6206,-6.6225,-6.6188,-6.6334,-6.6288,-6.6346,-6.6345,-6.6374,-6.6371,-6.6535,-6.6402,-6.6401,-6.6401,-6.6401,0,-6.5613,-6.5693,-6.5731,-6.5788,-6.5877,-6.5896,-6.5984,-6.6013,-6.606,-6.6122,-6.6121,-6.6179,-6.6202,-6.6263,-6.6279,-6.6367,-6.6384,-6.6396,-6.6399,-6.6395,-6.6393,-6.6416,-6.6408,-6.6406,-6.6405,-6.6404,-6.6403,0,-6.5718,-6.5747,-6.5848,-6.5908,-6.5925,-6.5988,-6.6039,-6.6093,-6.6118,-6.6196,-6.6216,-6.6254,-6.6326,-6.6351,-6.6439,-6.6449,-6.6552,-6.6549,-6.6533,-6.6533,-6.6589,-6.6583,-6.6771,-6.6796,-6.6648,-6.665,-6.6651,0,-6.5796,-6.5857,-6.5925,-6.5967,-6.6,-6.6068,-6.6112,-6.6133,-6.6178,-6.6246,-6.6292,-6.6365,-6.6423,-6.6539,-6.6574,-6.6641,-6.6638,-6.67,-6.6648,-6.6642,-6.6637,-6.6632,-6.6638,-6.6709,-6.671,-6.6711,-6.6712,0,-6.5931,-6.5942,-6.6006,-6.6075,-6.6127,-6.6182,-6.6235,-6.627,-6.6299,-6.635,-6.6424,-6.647,-6.6561,-6.6632,-6.6701,-6.6732,-6.6727,-6.6729,-6.6746,-6.6741,-6.6728,-6.6734,-6.6557,-6.6724,-6.6723,-6.6722,-6.6721,-6.6721,-6.6023,-6.6077,-6.6133,-6.6204,-6.6247,-6.6297,-6.6351,-6.6383,-6.6446,-6.6522,-6.6531,-6.6611,-6.6665,-6.6757,-6.6792,-6.6854,-6.6837,-6.6862,-6.6867,-6.6872,-6.6876,-6.6721,-6.6867,-6.6867,-6.6867,-6.6866,-6.6866,0,-6.6156,-6.6192,-6.6257,-6.6332,-6.6388,-6.6381,-6.644,-6.6486,-6.6557,-6.6608,-6.6667,-6.6752,-6.6822,-6.6863,-6.6933,-6.6975,-6.6974,-6.6992,-6.6988,-6.6995,-6.6888,-6.6866,-6.6992,-6.6992,-6.6992,-6.6991,-6.6991,-6.6991,-6.6232,-6.6323,-6.6341,-6.6453,-6.6489,-6.6568,-6.6602,-6.6648,-6.6689,-6.6785,-6.6843,-6.6871,-6.6918,-6.6991,-6.7054,-6.7065,-6.7089,-6.7109,-6.7117,-6.7016,-6.7003,-6.699,-6.6969,-6.7114,-6.7115,-6.7218,-6.7219,-6.722]},{"header":{"parameterUnit":"m.s-1","parameterCategory":1,"la1":30.2991,"la2":30.254,"lo1":-89.0895,"lo2":-89.0444,"dy":0.0017,"dx":0.0017,"nx":28,"ny":28,"refTime":"2024-04-27T03:00:00:Z","depth":0,"parameterNumber":3,"parameterNumberName":"V-component_of_WINDS"},"data":[0,0,0,0,0,0,0,0,0,0,0,0,0,0,0,0,0,0,0,0,0,0,0,0,0,0,0,0,0,0,0,0,0,0,0,0,0,0,0,0,0,0,0,0,0,0,0,0,0,0,0,0,0,0,0,0,0,0,4.576,4.5761,0,4.5823,4.5823,4.5824,4.5829,4.5828,4.5827,4.5827,4.5886,4.5888,4.589,0,0,0,0,0,0,0,0,0,0,0,0,0,4.564,4.5642,4.576,4.5761,4.5762,4.5823,4.5823,4.5824,4.5829,4.5828,4.5827,4.5826,4.5885,4.5888,4.589,0,0,0,0,0,0,0,0,0,0,0,0,0,4.5696,4.5643,4.576,4.5771,4.5773,4.5822,4.5823,4.5825,4.5829,4.5828,4.5827,4.5826,4.5884,4.5887,4.5891,4.5931,0,0,4.5901,4.5902,0,0,0,0,0,0,0,0,4.5693,4.5701,4.5769,4.5771,4.5773,4.5817,4.5803,4.586,4.5829,4.5808,4.5827,4.5825,4.5863,4.5868,4.5882,4.5934,4.5937,4.5901,4.5903,4.5904,4.5905,0,0,0,0,0,0,0,4.5689,4.5698,4.5785,4.577,4.5772,4.5772,4.5779,4.5814,4.584,4.5809,4.581,4.5818,4.5864,4.5879,4.5883,4.5937,4.5901,4.5904,4.5906,4.5907,4.6027,4.6028,0,0,0,0,0,0,4.5684,4.5695,4.5783,4.5787,4.573,4.5775,4.5783,4.5804,4.584,4.5845,4.5818,4.5817,4.5874,4.588,4.5886,4.5936,4.5904,4.5907,4.5909,4.6026,4.6027,4.6029,0,0,0,0,0,0,4.5681,4.5692,4.578,4.5741,4.5752,4.5778,4.5802,4.5805,4.582,4.5847,4.5851,4.5829,4.5873,4.5881,4.5921,4.5938,4.5909,4.5912,4.6025,4.6026,4.6028,4.6038,0,0,0,0,0,0,4.5678,4.5691,4.5707,4.5741,4.5754,4.5815,4.5803,4.5807,4.5827,4.5826,4.5858,4.5862,4.5873,4.5916,4.5924,4.5942,4.5915,4.6023,4.6025,4.6027,4.6036,4.604,4.6043,0,0,0,0,0,4.5674,4.5706,4.5708,4.5719,4.5776,4.5816,4.5823,4.5837,4.5828,4.5844,4.5862,4.5861,4.5935,4.592,4.5929,4.5949,4.6022,4.6025,4.6027,4.6034,4.6039,4.6043,0,0,0,0,0,0,4.5671,4.5711,4.5713,4.5758,4.5784,4.5817,4.5838,4.5841,4.5869,4.5867,4.5881,4.5888,4.5927,4.5942,4.5924,4.5991,4.5977,4.5982,4.598,4.5984,4.5988,4.5983,4.5917,0,0,0,0,0,4.5676,4.5707,4.5739,4.5776,4.5789,4.5811,4.5829,4.5838,4.5865,4.5875,4.5895,4.592,4.5949,4.5967,4.5995,4.6038,4.6045,4.6057,4.606,4.6063,4.6066,4.6091,4.6096,4.6038,4.6038,4.6038,0,0,4.5686,4.5711,4.573,4.5776,4.5797,4.5828,4.582,4.5853,4.5875,4.5879,4.5919,4.5934,4.5963,4.6005,4.6024,4.6018,4.6084,4.6066,4.6068,4.607,4.6094,4.61,4.6105,4.6039,4.6039,4.6039,0,0,4.572,4.5742,4.5776,4.5798,4.5831,4.5846,4.5854,4.5887,4.5898,4.5938,4.5942,4.5969,4.6018,4.6039,4.6056,4.61,4.61,4.6108,4.6126,4.615,4.6154,4.6158,4.6174,4.618,4.6112,4.6112,4.6112,0,4.5727,4.5775,4.5792,4.5825,4.5845,4.5853,4.5886,4.5906,4.5946,4.5959,4.5952,4.6016,4.6035,4.6083,4.6094,4.6107,4.6116,4.6104,4.6153,4.6157,4.6161,4.6176,4.6182,4.6113,4.6113,4.6113,4.6113,0,4.5783,4.5816,4.5839,4.588,4.5903,4.5936,4.5956,4.5977,4.5984,4.6,4.6041,4.6065,4.6098,4.611,4.6116,4.6159,4.6154,4.615,4.6137,4.6167,4.6182,4.6187,4.6114,4.6114,4.6113,4.6113,0,0,4.5815,4.5867,4.5875,4.5894,4.5932,4.5957,4.5991,4.6026,4.6043,4.6071,4.6099,4.6142,4.6139,4.6158,4.6167,4.6187,4.6221,4.6181,4.6182,4.6187,4.6269,4.6272,4.6278,4.6222,4.6223,4.6224,4.6267,0,4.5854,4.5915,4.5932,4.5984,4.6015,4.6023,4.6052,4.6078,4.6094,4.6121,4.6138,4.6168,4.6162,4.6174,4.6195,4.6213,4.6238,4.621,4.6247,4.6248,4.624,4.6286,4.6289,4.6328,4.6273,4.6274,4.6274,0,4.5906,4.5937,4.5993,4.6028,4.6042,4.6068,4.6102,4.6128,4.6158,4.6168,4.6191,4.6198,4.6232,4.6218,4.6265,4.6246,4.6263,4.6274,4.6276,4.6279,4.6263,4.629,4.634,4.6346,4.6283,4.6283,4.6282,0,4.5924,4.598,4.6021,4.6037,4.6079,4.6097,4.6115,4.6144,4.6164,4.6194,4.6207,4.6239,4.6257,4.6281,4.6296,4.6285,4.6343,4.633,4.6351,4.6351,4.6362,4.6361,4.6415,4.6373,4.6373,4.6373,4.6373,0,4.5965,4.5998,4.603,4.6055,4.6093,4.6111,4.6148,4.6166,4.6192,4.6219,4.6228,4.6254,4.6273,4.6301,4.6313,4.6351,4.6358,4.6367,4.6369,4.6366,4.6365,4.6376,4.6374,4.6375,4.6374,4.6374,4.6374,0,4.5991,4.6014,4.6059,4.6096,4.6106,4.6132,4.6164,4.6188,4.6204,4.624,4.6249,4.6275,4.6308,4.6327,4.6368,4.6376,4.6418,4.6419,4.6409,4.641,4.643,4.6428,4.6493,4.6502,4.6455,4.6455,4.6455,0,4.6016,4.6042,4.6083,4.6104,4.6123,4.6155,4.6177,4.6196,4.6218,4.6254,4.6274,4.6309,4.6337,4.6391,4.6412,4.6444,4.6446,4.6467,4.6451,4.6447,4.6446,4.6444,4.6447,4.6469,4.647,4.647,4.647,0,4.6057,4.6067,4.6099,4.6135,4.6161,4.619,4.6219,4.6234,4.6258,4.6282,4.6318,4.6341,4.6385,4.6419,4.6453,4.647,4.6474,4.6475,4.6482,4.6478,4.6471,4.6475,4.6416,4.6473,4.6473,4.6473,4.6473,4.6473,4.6083,4.6107,4.614,4.6176,4.62,4.6227,4.6252,4.6273,4.6303,4.6342,4.6351,4.6389,4.6418,4.6465,4.6483,4.6512,4.6508,4.6517,4.6519,4.6521,4.6522,4.6467,4.6518,4.6518,4.6518,4.6518,4.6518,0,4.6124,4.6147,4.6179,4.622,4.6248,4.6252,4.6284,4.6306,4.634,4.6368,4.6397,4.6438,4.6472,4.6497,4.6531,4.6549,4.6552,4.6557,4.6556,4.656,4.6524,4.6515,4.6555,4.6555,4.6555,4.6555,4.6555,4.6555,4.6149,4.6191,4.6205,4.6259,4.6281,4.6319,4.6337,4.6362,4.6385,4.6431,4.646,4.6477,4.6503,4.654,4.657,4.6577,4.6589,4.6594,4.66,4.6566,4.6562,4.6558,4.655,4.6597,4.6597,4.6634,4.6634,4.6635]}]]